Weather History for KAZO - April, 2012

Change the Weather History Date:

Monday, April 9, 2012

  Actual Average Record
Temperature  
Mean Temperature 49 °F 46 °F  
Max Temperature 58 °F 57 °F 75 °F (1969)
Min Temperature 39 °F 36 °F 19 °F (1997)
Degree Days  
Heating Degree Days 16 19  
Month to date heating degree days 182  
Since 1 July heating degree days 5839  
Cooling Degree Days 0 0  
Month to date cooling degree days 0  
Year to date cooling degree days 0  
Moisture  
Dew Point 29 °F    
Average Humidity 51    
Maximum Humidity 89    
Minimum Humidity 26    
Precipitation  
Precipitation 0.00 in 0.09 in 1.32 in (1999)
Month to date precipitation 0.43 0.84  
Year to date precipitation 6.33  
Sea Level Pressure  
Sea Level Pressure 29.95 in    
Wind  
Wind Speed 13 mph (West)    
Max Wind Speed 29 mph    
Max Gust Speed 38 mph    
Visibility 10 miles    
Events      
T = Trace of Precipitation, MM = Missing Value Source: NWS Daily Summary

Daily Weather History Graph

Daily Weather History Graph

Search for Another Location

Airport or City:

Trip Planner

Search our weather history database for the weather conditions in past years. The results will help you decide how hot, cold, wet, or windy it might be!

Date:

Astronomy

Apr. 09, 2012 Rise Set
Actual Time 7:10 AM EDT 8:17 PM EDT
Civil Twilight 6:41 AM EDT 8:46 PM EDT
Nautical Twilight 6:07 AM EDT 9:20 PM EDT
Astronomical Twilight 5:31 AM EDT 9:56 PM EDT
Moon No Moon Rise 8:53 AM EDT (4/9)
Length of Visible Light 14h 04m
Length of Day
13h 07m
Waning Gibbous, 88% of the Moon is Illuminated
Apr 9
Waning Gibbous
Apr 13
Last Quarter
Apr 21
New
Apr 29
First Quarter
May 5
Full

Hourly Weather History & Observations

Time (EDT) Temp. Windchill Dew Point Humidity Pressure Visibility Wind Dir Wind Speed Gust Speed Precip Events Conditions
12:53 AM 39.0 °F 34.8 °F 36.0 °F 89% 30.07 in 10.0 mi SSW 5.8 mph - N/A   Mostly Cloudy
1:53 AM 43.0 °F 38.2 °F 37.9 °F 82% 30.05 in 10.0 mi SSW 8.1 mph - N/A   Overcast
2:53 AM 42.1 °F 39.2 °F 37.0 °F 82% 30.03 in 10.0 mi SW 4.6 mph - N/A   Overcast
3:53 AM 41.0 °F 36.4 °F 35.1 °F 79% 30.01 in 10.0 mi SW 6.9 mph - N/A   Partly Cloudy
4:53 AM 43.0 °F 38.8 °F 36.0 °F 76% 29.99 in 10.0 mi SW 6.9 mph - N/A   Clear
5:53 AM 43.0 °F 39.5 °F 36.0 °F 76% 29.98 in 10.0 mi SW 5.8 mph - N/A   Clear
6:53 AM 43.0 °F 38.2 °F 37.0 °F 80% 29.96 in 10.0 mi SW 8.1 mph - N/A   Clear
7:53 AM 45.0 °F 41.2 °F 37.9 °F 76% 29.96 in 10.0 mi WSW 6.9 mph - N/A   Mostly Cloudy
8:53 AM 48.2 °F - 39.2 °F 71% 29.94 in 10.0 mi WSW 6.9 mph - N/A   Scattered Clouds
9:53 AM 52.0 °F - 37.0 °F 57% 29.94 in 10.0 mi West 12.7 mph 20.7 mph N/A   Scattered Clouds
10:53 AM 55.0 °F - 33.1 °F 43% 29.94 in 10.0 mi WNW 15.0 mph 25.3 mph N/A   Clear
11:53 AM 55.9 °F - 26.1 °F 32% 29.94 in 10.0 mi WNW 18.4 mph 31.1 mph N/A   Clear
12:53 PM 57.9 °F - 23.0 °F 26% 29.94 in 10.0 mi NW 20.7 mph 31.1 mph N/A   Clear
1:53 PM 57.0 °F - 23.0 °F 27% 29.93 in 10.0 mi NW 24.2 mph 33.4 mph N/A   Clear
2:53 PM 57.0 °F - 23.0 °F 27% 29.93 in 10.0 mi West 21.9 mph 35.7 mph N/A   Clear
3:53 PM 57.0 °F - 23.0 °F 27% 29.93 in 10.0 mi West 24.2 mph 36.8 mph N/A   Mostly Cloudy
4:53 PM 57.0 °F - 24.1 °F 28% 29.91 in 10.0 mi WNW 21.9 mph 32.2 mph N/A   Scattered Clouds
5:53 PM 55.9 °F - 21.9 °F 27% 29.91 in 10.0 mi WNW 23.0 mph 28.8 mph N/A   Clear
6:53 PM 54.0 °F - 21.0 °F 28% 29.90 in 10.0 mi WNW 17.3 mph 28.8 mph N/A   Clear
7:53 PM 51.1 °F - 19.0 °F 28% 29.90 in 10.0 mi WNW 11.5 mph - N/A   Clear
8:53 PM 48.0 °F - 19.9 °F 33% 29.91 in 10.0 mi NW 12.7 mph - N/A   Clear
9:53 PM 46.0 °F 41.0 °F 23.0 °F 40% 29.93 in 10.0 mi NW 10.4 mph - N/A   Clear
10:53 PM 43.0 °F 37.2 °F 25.0 °F 49% 29.93 in 10.0 mi NW 10.4 mph - N/A   Clear
11:53 PM 43.0 °F 36.4 °F 26.1 °F 51% 29.95 in 10.0 mi NNW 12.7 mph - N/A   Clear